Regional Weather Roundup
Issued by NWS

Home | Current Version | Previous Version | Graphics & Text | Print | Product List | Glossary On
Versions: 1 2 3 4 5 6 7 8 9 10 11 12 13 14 15 16 17 18 19 20 21 22 23 24 25 26 27 28 29 30 31 32 33 34 35 36 37 38 39 40 41 42 43 44 45 46 47 48 49 50
928
ASUS45 KABQ 232210
RWRNM
NEW MEXICO REGIONAL WEATHER ROUNDUP
NATIONAL WEATHER SERVICE ALBUQUERQUE NM
400 PM MDT TUE MAY 23 2017

NOTE: "FAIR" MEANS FEW OR NO CLOUDS BELOW 12,000 FEET AGL WITH NO
       SIGNIFICANT WEATHER OR OBSTRUCTIONS TO VISION.

      THIS PRODUCT IS RELEASED AS TWO VERSIONS.  ONE VERSION NEAR
      THE TOP OF THE HOUR CONTAINING PRELIMINARY DATA FROM ALBUQUERQUE
      AND OTHER STATIONS.  A FINAL VERSION WITH ADDITIONAL DATA IS
      ISSUED ABOUT 10 MINUTES AFTER THE HOUR.

NMZ501-503-504-510>518-232300-
NORTHWEST PLATEAU/NORTHCENTRAL MOUNTAINS

CITY           SKY/WX    TMP DP  RH WIND       PRES   REMARKS
FARMINGTON     FAIR      75  36  24 NW25G40   30.06F
LOS ALAMOS     FAIR      62  33  33 SE13      30.13F
SANTA FE       PTSUNNY   68  35  29 S9        30.09F
TAOS           FAIR      63  25  23 NW3       30.13F
ANGEL FIRE     FAIR      56  27  32 SW13G20   30.18S

$$
NMZ402-403-502-505>509-232300-
WESTCENTRAL MOUNTAINS/SOUTHWEST MOUNTAINS

CITY           SKY/WX    TMP DP  RH WIND       PRES   REMARKS
GALLUP         FAIR      73  25  16 NW10G26   30.16F
GRANTS         FAIR      74  16  11 NW20G30   30.15F
SILVER CITY    FAIR      88  18   8 NW16G26   30.03F

$$
NMZ407-409-411-412-232300-
SOUTHERN DESERTS

CITY           SKY/WX    TMP DP  RH WIND       PRES   REMARKS
DEMING         FAIR      92  14   5 W13G30    29.94F
LAS CRUCES     FAIR      90  26   9 E12       29.96F
HOLLOMAN AFB   FAIR      81  39  22 S14G25    30.02S
ALAMOGORDO     FAIR      79  37  22 S18G25    30.00F
T OR C         FAIR      86  30  13 NE13G18   29.98F

$$
NMZ519>523-232300-
CENTRAL VALLEYS/CENTRAL HIGHLANDS

CITY           SKY/WX    TMP DP  RH WIND       PRES   REMARKS
ALBUQUERQUE    PTSUNNY   77  31  18 W7        30.03F
DOUBLE EAGLE   MOSUNNY   75  21  13 W17G31    30.06F
MORIARTY ARPT  FAIR      68  36  30 SE5       30.12F
CLINES CORNERS FAIR      64  32  30 NW9       30.15F
BELEN          FAIR      82  16   8 NW16G28   30.02F
SOCORRO        FAIR      79  32  18 S8        30.02F

$$
NMZ524>526-539-540-232300-
SOUTHCENTRAL MOUNTAINS

CITY           SKY/WX    TMP DP  RH WIND       PRES   REMARKS
RUIDOSO        FAIR      63  34  34 E7        30.18F

$$
NMZ527>531-232300-
NORTHEAST HIGHLANDS/NORTHEAST PLAINS

CITY           SKY/WX    TMP DP  RH WIND       PRES   REMARKS
LAS VEGAS      FAIR      59  35  40 S15       30.15F
RATON          FAIR      59  31  34 NE24G30   30.10F
CLAYTON        CLOUDY    58  33  39 N18G25    30.12F

$$
NMZ532>537-232300-
EASTCENTRAL PLAINS

CITY           SKY/WX    TMP DP  RH WIND       PRES   REMARKS
SANTA ROSA     MOCLDY    65  36  34 SE5       30.11F
TUCUMCARI      PTSUNNY   68  33  27 N13G20    30.06F
CANNON AFB     FAIR      65  35  32 NW10      30.11F
CLOVIS AIRPORT PTSUNNY   64  36  34 N12       30.10F

$$
NMZ028-029-538-232300-
SOUTHEAST PLAINS

CITY           SKY/WX    TMP DP  RH WIND       PRES   REMARKS
ROSWELL        FAIR      69  31  24 NE6G17    30.10F
ARTESIA        FAIR      68  39  34 N8G15     30.10F
CARLSBAD       FAIR      71  42  35 NW8G22    30.09F
HOBBS          SUNNY     66  30  26 N12G18    30.12F


$$




USA.gov is the U.S. government's official web portal to all federal, state and local government web resources and services.